Location: Asheville, NC
(35.6000°N, 82.5500°W)
Time: 10:47:48

N. Korean satellite - Pass Details

Date: 15 March 2018
Orbit: 460 x 512 km, 97.2° (Epoch: 21 March)

Event Time Altitude Azimuth Distance (km) Brightness Sun altitude
Rises 20:23:03 0° 208° (SSW) 2,527 10.5 -10.0°
Reaches altitude 10° 20:25:55 10° 235° (SW) 1,666 10.0 -10.6°
Maximum altitude 20:27:50 14° 267° (W) 1,452 10.3 -11.0°
Drops below altitude 10° 20:29:47 10° 300° (WNW) 1,690 10.5 -11.4°
Sets 20:32:44 0° 326° (NW) 2,590 10.9 -12.0°
